Flag for U.S.A. Weather past 2 weeks in Glennallen, Alaska, U.S.A.

Now
19 °F

Passing clouds.


Feels Like: 12 °F
Forecast: 8 / 27 °F
Wind: 5 mph from Northwest

Location: Gulkana Airport

Current Time: Mar 3, 2015 at 8:08:32 AM

Latest Report: Mar 3, 2015 at 6:53 AM


Visibility: 10 mi

Pressure: 30.14 "Hg

Humidity: 71%

Dew point: 11 °F

Location of GlennallenLocation

Historic Weather in Glennallen — Graph

°F

Glennallen temperature yesterday

Maximum temperature yesterday: 22 °F (at 2:53 PM)
Minimum temperature yesterday: 0 °F (at 7:53 AM)
Average temperature yesterday: 12 °F

Past Weeks' High & Low Weather Summary

 TemperatureHumidityPressure
High40 °F (Feb 16, 7:53 PM)96% (Feb 21, 10:53 PM)30.73 "Hg (Feb 21, 10:53 PM)
Low-4 °F (Feb 27, 7:53 AM)45% (Feb 17, 2:53 PM)29.75 "Hg (Feb 16, 7:53 PM)
Average22 °F79%30.28 "Hg
* Reported Feb 16 6:53 AM — Mar 3 6:53 AM, Glennallen, Weather by CustomWeather, © 2015

Note: Actual official high and low records may vary slightly from our data, if they occured in-between our weather recording intervals... More about our weather records

Advertising

Glennallen weather history for previous 24 hours

 ConditionsComfort  
Time TempWeatherWind HumidityBarometerVisibility
6:53 AM
Tue, Mar 3
19 °FPassing clouds.5 mph71%30.14 "Hg10 mi
5:53 AM19 °FMostly cloudy.No wind74%30.13 "Hg10 mi
4:53 AM20 °FOvercast.No wind71%30.13 "Hg10 mi
3:53 AM19 °FOvercast.No wind71%30.15 "Hg10 mi
2:53 AM18 °FOvercast.3 mph74%30.16 "Hg10 mi
1:53 AM18 °FOvercast.No wind71%30.17 "Hg10 mi
12:53 AM17 °FOvercast.3 mph70%30.19 "Hg10 mi
11:53 PM
Mon, Mar 2
16 °FOvercast.No wind71%30.21 "Hg10 mi
10:53 PM15 °FPassing clouds.No wind74%30.22 "Hg10 mi
9:53 PM14 °FPassing clouds.No wind77%30.24 "Hg10 mi
8:53 PM13 °FClear.No wind77%30.26 "Hg10 mi
7:53 PM14 °FPassing clouds.No wind77%30.28 "Hg10 mi
6:53 PM16 °FClear.No wind74%30.29 "Hg10 mi
5:53 PM20 °FSunny.No wind65%30.29 "Hg10 mi
4:53 PM21 °FSunny.No wind62%30.32 "Hg10 mi
3:53 PM21 °FSunny.No wind62%30.34 "Hg10 mi
2:53 PM22 °FSunny.No wind60%30.37 "Hg10 mi
1:53 PM19 °FSunny.No wind65%30.40 "Hg10 mi
12:53 PM16 °FSunny.No wind74%30.43 "Hg10 mi
11:53 AM12 °FSunny.No wind80%30.47 "Hg10 mi
10:53 AM9 °FSunny.No wind84%30.49 "Hg10 mi
9:53 AM5 °FSunny.No wind80%30.51 "Hg10 mi
8:53 AM2 °FSunny.No wind80%30.54 "Hg10 mi
Weather by CustomWeather, © 2015

See weather overviewHow to use our weather pages